SCP
0 0 0 0 0 0 0 0 0 0 0 0 0 0 0 0 0 0 0 0 0 0 0 0 0 0 0 0 0 0 0 0 0 0 0 0 0 0 0 0 0 0 0 0 0 0 0 0 0 0 0 0 0 0
0 0 0 0 0 0 0 0 0 0 0 0 0 0 0 0 0 0 0 0 0 0 0 0 0 0 0 0 0 0 0 0 0 0 0 0 0 0 0 0 0 0 0 0 0 0 0 0 0 0 0 0 0 0
0 0 0 0 0 0 0 0 0 0 0 0 0 0 0 0 0 0 0 0 0 0 0 0 0 0 0 0 0 0 0 0 0 0 0 0 0 0 0 0 0 0 0 0 0 0 0 0 0 0 0 0 0 0
0 0 0 0 0 0 0 0 0 0 0 0 0 0 0 0 0 0 0 0 0 0 0 0 0 0 0 0 0 0 0 0 0 0 0 0 0 0 0 0 0 0 0 0 0 0 0 0 0 0 0 0 0 0
0 0 0 0 0 0 0 0 0 0 0 0 0 0 0 0 0 0 0 0 0 0 0 0 0 0 0 0 0 0 0 0 0 0 0 0 0 0 0 0 0 0 0 0 0 0 0 0 0 0 0 0 0 0
0 0 0 0 0 0 0 0 0 0 0 0 0 0 0 0 0 0 0 0 0 0 0 0 0 0 0 0 0 0 0 0 0 0 0 0 0 0 0 0 0 0 0 0 0 0 0 0 0 0 0 0 0 0
0 0 0 0 0 0 0 0 0 0 0 0 0 0 0 0 0 0 0 0 0 0 0 0 0 0 0 0 0 0 0 0 0 0 0 0 0 0 0 0 0 0 0 0 0 0 0 0 0 0 0 0 0 0
0 0 0 0 0 0 0 0 0 0 0 0 0 0 0 0 0 0 0 0 0 0 0 0 0 0 0 0 0 0 0 0 0 0 0 0 0 0 0 0 0 0 0 0 0 0 0 0 0 0 0 0 0 0
0 0 0 0 0 0 0 0 0 0 0 0 0 0 0 0 0 0 0 0 0 0 0 0 0 0 0 0 0 0 0 0 0 0 0 0 0 0 0 0 0 0 0 0 0 0 0 0 0 0 0 0 0 0
0 0 0 0 0 0 0 0 0 0 0 0 0 0 0 0 0 0 0 0 0 0 0 0 0 0 0 0 0 0 0 0 0 0 0 0 0 0 0 0 0 0 0 0 0 0 0 0 0 0 0 0 0 0
0 0 0 0 0 0 0 0 0 0 0 0 0 0 0 0 0 0 0 0 0 0 0 0 0 0 0 0 0 0 0 0 0 0 0 0 0 0 0 0 0 0 0 0 0 0 0 0 0 0 0 0 0 0
-0 0 0 0 0 0 0 0 0 0 0 0 0 0 0 0 0 0 0 0 0 0 0 0 0 0 0 0 0 0 0 0 0 0 0 0 0 0 0 0 0 0 0 0 0 0 0 0 0 0 0 0 0 0
0 0 0 0 0 0 0 0 0 0 0 0 0 0 0 0 0 0 0 0 0 0 0 0 0 0 0 0 0 0 0 0 0 0 0 0 0 0 0 0 0 0 0 0 0 0 0 0 0 0 0 0 0 0
-0 0 0 -0 0 0 0 0 0 0 0 0 0 0 0 0 0 0 0 0 0 0 0 0 0 0 0 0 0 0 0 0 0 0 0 0 0 0 0 0 0 0 0 0 0 0 0 0 0 0 0 0 0 0
-0 -0 -0 0 0 0 0 0 0 0 0 0 0 0 0 0 0 0 0 0 0 0 0 0 0 0 0 0 0 0 0 0 0 0 0 0 0 0 0 0 0 0 0 0 0 0 0 0 0 0 0 0 0 0
-0 0 -0 -0 0 0 0 0 0 0 0 0 0 0 0 0 0 0 0 0 0 0 0 0 0 0 0 0 0 0 0 0 0 0 0 0 0 0 0 0 0 0 0 0 0 0 0 0 0 0 0 0 0 0
-0 -0 -0 -0 -0 0 0 0 0 0 0 0 0 0 0 0 0 0 0 0 0 0 0 0 0 0 0 0 0 0 0 0 0 0 0 0 0 0 0 0 0 0 0 0 0 0 0 0 0 0 0 0 0 0
0 0 -0 0 0 -0 0 0 0 0 0 0 0 0 0 0 0 0 0 0 0 0 0 0 0 0 0 0 0 0 0 0 0 0 0 0 0 0 0 0 0 0 0 0 0 0 0 0 0 0 0 0 0 0
0 0 0 0 0 0 0 0 0 0 0 0 0 0 0 0 0 0 0 0 0 0 0 0 0 0 0 0 0 0 0 0 0 0 0 0 0 0 0 0 0 0 0 0 0 0 0 0 0 0 0 0 0 0
0 0 -0 0 -0 -0 -0 0 0 0 0 0 0 0 0 0 0 0 0 0 0 0 0 0 0 0 0 0 0 0 0 0 0 0 0 0 0 0 0 0 0 0 0 0 0 0 0 0 0 0 0 0 0 0
0 0 0 -0 0 0 -0 0 0 0 0 0 0 0 0 0 0 0 0 0 0 0 0 0 0 0 0 0 0 0 0 0 0 0 0 0 0 0 0 0 0 0 0 0 0 0 0 0 0 0 0 0 0 0
0 0 0 0 0 0 0 0 0 0 0 0 0 0 0 0 0 0 0 0 0 0 0 0 0 0 0 0 0 0 0 0 0 0 0 0 0 0 0 0 0 0 0 0 0 0 0 0 0 0 0 0 0 0
0 0 0 0 0 -0 0 0 0 0 0 -0 -0 -0 0 0 0 0 0 0 0 0 0 0 0 0 0 0 0 0 0 0 0 0 0 0 0 0 0 0 0 0 0 0 0 0 0 0 0 0 0 0 0 0
-0 0 0 0 0 0 0 -0 0 0 0 -0 -0 0 0 0 0 0 0 0 0 0 0 0 0 0 0 0 0 0 0 0 0 0 0 0 0 0 0 0 0 0 0 0 0 0 0 0 0 0 0 0 0 0
-0 -0 0 0 0 0 0 0 -0 -0 0 0 0 0 -0 -0 -0 0 0 0 0 0 0 0 0 0 0 0 0 0 0 0 0 0 0 0 0 0 0 0 0 0 0 0 0 0 0 0 0 0 0 0 0 0
-0 0 0 0 0 0 0 0 0 -0 -0 -0 -0 -0 -0 -0 0 0 0 0 0 0 0 0 0 0 0 0 0 0 0 0 0 0 0 0 0 0 0 0 0 0 0 0 0 0 0 0 0 0 0 0 0 0
0 0 0 0 0 0 0 0 0 0 -0 -0 -0 -0 -0 -0 0 -0 0 0 0 0 0 0 0 0 0 0 0 0 0 0 0 0 0 0 0 0 0 0 0 0 0 0 0 0 0 0 0 0 0 0 0 0
0 0 0 0 0 0 0 0 0 0 0 0 -0 -0 -0 0 -0 0 0 0 0 0 0 0 0 0 0 0 0 0 0 0 0 0 0 0 0 0 0 0 0 0 0 0 0 0 0 0 0 0 0 0 0 0
0 0 0 0 0 0 0 0 0 0 0 0 0 0 0 0 0 0 0 0 0 0 0 0 0 0 0 0 0 0 0 0 0 0 0 0 0 0 0 0 0 0 0 0 0 0 0 0 0 0 0 0 0 0
0 0 0 0 0 0 0 0 0 0 0 0 0 0 0 0 0 0 0 0 0 0 0 0 0 0 0 0 0 0 0 0 0 0 0 0 0 0 0 0 0 0 0 0 0 0 0 0 0 0 0 0 0 0
0 0 0 0 0 0 0 0 0 0 0 0 0 0 0 0 0 0 0 0 0 0 0 0 0 0 0 0 0 0 0 0 0 0 0 0 0 0 0 0 0 0 0 0 0 0 0 0 0 0 0 0 0 0
0 0 0 0 0 0 0 0 0 0 0 0 0 0 0 0 0 0 0 0 0 0 0 0 0 0 0 0 0 0 0 0 0 0 0 0 0 0 0 0 0 0 0 0 0 0 0 0 0 0 0 0 0 0
0 0 0 0 0 0 0 0 0 0 0 0 0 0 0 0 0 0 0 0 0 0 0 0 0 0 0 0 0 0 0 0 0 0 0 0 0 0 0 0 0 0 0 0 0 0 0 0 0 0 0 0 0 0
Wind_Speed_500mb
33 35 34 11 12 16 20 28 28 23 17 11 5 2 4 6 5 13 20 15 7 12 31 25 10 10 10 23 14 19 15 3 5 8 7 6 6 12 8 7 17 13 15 8 5 2 28 18 10 31 11 4 1 2
22 22 23 34 29 24 22 28 27 23 19 12 8 4 5 4 5 8 13 17 13 12 15 35 41 31 21 29 29 22 5 14 15 9 3 8 5 5 11 6 4 5 13 12 21 12 3 29 6 11 3 2 2 2
20 16 14 20 19 25 25 27 28 28 26 20 13 10 11 11 9 12 13 28 37 19 29 24 23 33 22 25 46 16 10 22 12 18 9 5 8 6 8 7 8 6 9 8 8 5 5 18 11 13 10 10 9 8
26 17 11 13 14 15 19 17 27 31 26 19 13 12 12 11 11 12 15 9 10 9 7 13 35 38 42 17 28 30 47 34 42 25 8 6 7 6 5 6 7 7 13 12 1 4 6 6 16 18 19 16 14 14
25 21 11 8 10 11 13 16 15 19 17 19 18 18 16 13 7 9 15 22 11 3 7 4 25 31 40 35 29 35 46 48 20 9 3 4 8 8 2 5 2 11 12 10 8 18 11 8 22 23 21 19 20 17
25 25 22 11 4 8 10 12 14 13 14 12 12 15 17 16 14 11 7 13 19 16 8 5 9 30 30 42 49 46 36 32 15 12 6 10 7 5 6 5 6 11 14 19 15 28 26 32 25 24 25 20 16 12
27 25 26 21 13 9 8 9 15 18 13 15 14 14 12 10 10 7 11 6 11 8 8 4 4 10 19 27 35 40 40 25 16 9 7 7 7 9 5 5 5 20 20 30 39 48 28 23 23 24 22 25 24 24
27 22 25 27 18 11 10 9 11 20 21 22 19 19 15 14 21 21 18 11 6 9 9 6 3 4 12 9 9 12 11 13 21 7 6 4 7 7 3 2 21 22 23 31 26 15 30 28 27 30 30 28 27 23
24 24 22 25 23 19 12 7 8 19 24 25 29 25 19 12 7 11 14 19 23 14 9 6 6 3 8 9 8 8 9 7 8 5 4 5 2 5 5 6 17 11 7 24 27 22 28 28 31 33 28 24 18 17
20 33 33 33 30 24 35 21 26 16 22 28 30 9 7 11 25 13 6 4 10 16 11 5 2 4 8 10 11 5 11 4 5 3 4 5 4 18 19 17 17 11 11 24 33 32 37 37 33 28 21 18 14 9
20 30 34 36 35 34 32 25 19 28 32 20 7 8 29 23 7 9 9 11 12 7 13 8 9 5 7 5 4 9 3 3 5 4 3 2 2 7 11 14 16 19 19 21 25 31 29 28 24 17 12 7 4 4
18 24 27 29 30 31 32 27 20 20 14 18 30 25 11 7 9 12 3 7 8 2 7 4 6 7 7 8 6 7 5 5 3 5 4 1 3 8 9 15 16 20 22 27 27 25 24 19 15 11 7 5 6 6
20 20 21 27 30 28 30 19 28 36 33 26 12 8 10 11 14 9 1 7 4 6 6 5 4 6 7 9 10 5 10 1 4 6 5 3 9 12 10 11 15 17 19 19 20 18 16 14 14 14 14 12 9 9
24 25 25 25 25 25 19 22 15 17 11 11 9 10 6 8 3 6 6 5 3 6 9 10 7 5 9 8 1 9 2 5 6 4 7 2 6 9 12 14 13 18 20 21 21 21 19 20 18 17 17 15 11 6
13 12 11 22 19 17 19 17 11 21 14 12 10 6 7 1 7 7 11 7 8 6 9 5 8 8 6 8 5 7 7 1 7 7 1 5 4 6 10 13 15 17 18 18 19 17 16 15 14 14 11 7 3 1
14 14 23 28 18 9 5 13 11 16 10 11 17 9 6 5 7 11 15 8 13 8 7 6 5 7 7 6 7 5 10 9 5 1 2 4 6 9 11 12 12 14 15 15 15 13 12 8 6 3 3 6 10 13
18 19 29 22 20 13 35 33 15 13 12 10 9 19 10 13 10 10 14 16 14 10 4 4 8 1 2 6 4 4 7 3 3 4 9 10 9 10 11 10 9 8 8 7 7 4 3 3 5 7 10 14 15 17
38 36 37 47 47 49 34 15 11 13 16 18 8 10 22 21 10 15 14 19 12 8 7 3 5 6 6 7 5 3 0 1 3 4 5 7 9 8 7 7 7 8 9 9 8 7 8 10 11 12 14 18 21 23
31 24 18 15 13 12 9 13 14 11 13 8 9 12 14 14 27 25 19 14 15 13 7 4 7 3 3 1 3 3 2 2 2 4 8 9 7 5 6 8 11 12 13 13 14 17 20 21 24 26 28 27 26 27
21 15 11 14 9 9 11 14 13 13 7 7 9 10 10 10 13 18 24 16 12 7 16 8 2 1 3 2 1 1 1 1 3 1 1 0 4 8 12 13 15 16 18 21 24 23 24 28 32 32 35 36 35 34
17 18 15 6 17 23 15 11 14 11 8 9 11 12 9 12 13 18 21 23 11 12 5 6 5 6 5 4 3 2 3 4 5 4 6 5 10 16 16 20 20 22 23 25 25 29 34 35 35 37 38 39 41 41
16 14 14 21 15 13 17 22 10 7 6 7 9 12 13 9 16 20 21 20 10 9 6 7 9 9 7 5 5 7 7 8 8 10 13 16 14 15 16 23 22 21 25 28 29 29 30 35 36 37 38 38 39 39
11 13 17 21 12 16 9 15 8 15 8 13 7 8 8 10 18 17 10 8 6 11 10 11 10 11 9 7 6 6 6 7 9 11 12 13 14 17 18 20 23 23 20 21 27 26 27 30 32 33 36 36 37 36
17 14 17 16 24 7 10 14 11 11 9 9 7 6 8 13 22 9 3 4 7 10 11 11 12 11 10 9 8 9 10 10 12 14 20 19 18 18 25 23 26 27 29 27 29 31 32 33 34 34 34 35 36 37
11 27 17 16 18 14 14 11 13 10 6 6 6 6 7 14 5 5 2 4 10 10 11 11 12 12 12 10 12 13 14 17 19 18 16 27 27 26 25 29 30 31 36 37 35 37 35 37 38 39 40 41 42 42
16 26 15 12 13 9 3 6 6 4 4 7 3 10 8 3 5 4 5 7 10 10 10 11 11 11 12 15 15 16 19 21 23 23 19 24 26 30 31 32 29 22 32 35 35 34 34 35 38 41 42 40 41 44
11 8 13 17 8 6 6 3 3 3 5 3 5 9 5 5 5 7 7 7 10 11 12 14 15 16 16 14 17 20 23 24 26 26 26 27 30 32 33 36 34 28 29 30 32 34 36 35 37 38 40 40 39 41
9 14 2 14 6 7 6 2 3 1 4 2 4 3 5 10 7 4 5 12 13 13 17 20 18 19 20 20 20 21 22 27 29 32 33 30 24 28 29 29 30 31 33 33 35 38 40 43 46 47 49 51 49 45
8 19 11 6 2 1 1 4 3 2 5 3 5 6 8 9 8 9 10 14 18 18 18 19 22 23 23 24 25 26 28 30 33 36 35 34 28 28 30 33 35 37 40 44 45 47 48 51 53 56 58 60 58 58
10 20 6 5 1 4 1 4 9 17 21 15 13 13 16 19 16 19 21 20 21 22 22 23 23 21 22 26 25 23 26 31 32 33 39 42 41 39 39 41 44 45 48 52 55 55 54 56 59 61 64 67 68 69
14 13 8 5 7 5 10 26 27 23 18 14 20 25 22 19 16 8 9 13 18 23 26 27 24 21 27 28 33 38 38 31 35 39 44 47 47 47 47 49 51 53 56 60 63 65 66 68 69 70 72 73 72 72
10 6 9 6 5 11 19 10 13 7 7 7 9 10 11 11 11 7 4 14 22 26 25 26 26 21 27 33 36 41 43 46 47 48 50 54 58 58 59 60 61 62 64 65 66 67 67 69 71 73 75 75 75 74
10 8 7 9 8 6 10 20 5 8 10 8 7 7 8 9 13 9 7 11 31 42 33 28 24 27 32 39 42 45 45 45 48 52 54 58 61 63 65 65 63 61 61 63 64 66 68 69 71 72 74 75 76 75
Wind_Direction_500mb
21 25 28 126 147 145 147 163 167 165 157 159 179 189 104 110 83 41 41 33 57 87 39 48 54 96 139 167 147 158 107 355 32 86 129 171 127 206 105 181 161 145 155 191 70 152 255 164 115 184 195 152 102 259
2 24 34 46 79 110 136 157 165 161 152 146 147 132 132 116 84 84 52 75 86 89 96 65 64 76 114 153 141 152 118 152 163 106 118 118 118 141 147 204 323 158 179 175 185 204 210 183 117 169 137 114 96 130
17 17 48 44 67 96 104 133 147 138 133 136 119 116 143 99 91 119 91 110 109 88 60 51 34 70 99 139 169 137 161 155 124 126 138 148 140 144 148 237 99 288 184 156 97 255 116 176 177 182 167 145 117 103
27 28 42 61 87 102 110 107 126 129 133 134 129 108 105 97 69 143 105 84 78 84 87 33 65 66 56 94 167 179 176 147 135 125 98 124 125 206 192 144 146 203 131 147 23 301 112 194 189 171 147 143 133 123
38 42 55 63 73 101 127 126 127 128 129 125 117 113 110 102 102 122 122 66 56 95 138 100 56 70 66 79 121 136 151 143 105 78 85 112 125 122 1 63 205 199 167 165 199 167 137 145 180 171 161 152 148 141
41 46 54 63 105 105 110 143 139 151 162 136 124 114 127 130 128 84 80 70 74 85 110 58 45 55 95 77 76 86 112 112 98 109 107 98 106 105 109 173 278 185 159 138 155 149 129 130 133 146 151 139 134 134
33 49 47 56 74 111 96 141 151 146 158 162 163 135 122 112 134 79 86 31 33 55 94 69 28 32 66 83 72 69 68 66 77 78 53 102 100 84 91 153 192 164 135 127 131 129 117 140 122 126 135 131 127 114
33 50 50 38 60 103 93 102 158 157 146 146 153 152 138 110 93 89 88 72 32 60 72 93 320 48 30 41 70 44 58 52 42 76 56 63 81 68 50 237 145 145 138 135 129 112 135 126 126 129 133 131 124 110
46 55 65 56 48 61 91 93 132 157 154 147 149 136 130 118 80 87 108 64 56 51 105 75 114 198 28 54 73 67 61 59 41 55 47 36 31 83 344 46 111 129 115 156 151 148 152 153 144 142 149 142 141 127
60 60 59 60 52 32 54 74 111 152 156 141 145 92 74 112 118 94 77 62 36 28 44 94 115 58 45 23 34 52 42 68 75 348 17 53 85 92 52 78 106 126 158 160 151 139 148 143 145 140 134 123 113 107
70 63 59 52 49 43 32 34 92 151 148 142 88 68 126 124 64 52 57 51 343 35 19 29 43 80 56 81 128 21 165 37 88 257 134 17 78 85 42 74 98 105 119 153 160 150 151 149 139 129 120 103 67 53
81 66 59 55 53 52 41 38 70 105 99 107 112 98 70 72 65 76 335 334 47 169 2 66 28 54 76 72 95 14 108 47 114 297 78 14 92 44 74 70 93 104 111 121 127 131 129 134 137 139 137 130 127 101
91 71 49 40 35 38 46 29 107 104 94 73 63 68 15 352 48 87 72 319 6 336 28 48 50 47 73 66 69 62 61 107 295 43 219 200 95 54 80 111 100 111 117 119 125 127 126 130 136 139 138 132 123 103
98 77 49 28 20 41 62 37 114 91 67 59 51 43 69 350 18 173 166 183 7 340 67 55 49 64 38 52 92 79 284 45 49 26 249 64 67 61 74 97 124 113 117 122 124 123 128 133 136 131 130 126 120 107
67 51 24 5 354 18 61 75 51 45 48 55 29 52 43 291 25 43 44 44 17 58 48 75 59 65 15 79 47 101 48 282 198 218 109 101 50 86 90 96 99 103 111 119 125 127 128 136 144 141 137 130 120 313
17 353 354 348 307 292 96 83 67 45 58 53 49 71 25 40 2 36 38 28 22 27 57 59 73 57 40 106 63 196 120 209 243 120 37 124 115 91 84 86 88 97 104 112 121 124 125 139 157 179 255 288 293 294
20 40 33 356 340 166 143 125 83 52 56 55 52 41 69 69 58 29 16 8 14 11 74 64 63 80 95 54 14 194 188 230 150 104 98 103 110 92 80 70 61 59 75 91 95 102 145 211 258 279 289 297 300 301
69 80 70 81 92 110 101 71 78 60 64 48 71 28 55 59 60 41 20 16 20 37 18 70 111 72 139 140 269 250 229 32 151 111 115 97 86 76 58 32 13 360 353 350 350 338 319 311 299 290 283 282 285 289
100 80 77 76 54 57 60 49 49 84 62 63 53 41 63 68 49 40 30 42 57 68 85 55 75 101 155 150 162 159 159 106 153 239 258 271 253 273 308 335 332 331 322 322 322 313 310 308 306 305 305 305 303 301
61 61 47 12 347 51 69 44 49 75 75 45 36 30 63 56 48 32 29 45 57 49 43 41 136 93 121 122 170 217 187 15 6 29 229 212 245 287 305 312 310 312 315 316 312 306 305 307 308 308 305 304 305 303
35 31 24 20 48 59 69 46 55 57 50 57 17 34 38 34 34 29 22 13 50 44 63 62 38 11 15 344 331 335 332 326 330 329 306 311 308 306 306 306 311 311 310 308 307 308 310 309 306 303 303 303 303 302
35 28 37 45 58 64 61 37 56 45 41 49 31 24 33 25 11 6 1 34 54 32 37 22 15 11 354 327 304 292 289 294 303 307 309 311 315 300 295 299 302 301 302 302 301 300 298 299 300 301 301 300 301 301
47 47 48 33 64 46 34 24 48 24 56 357 11 38 20 14 2 358 63 48 55 14 10 9 4 0 359 6 1 341 316 312 312 306 305 308 311 313 312 309 307 308 306 302 304 302 297 293 292 293 294 295 296 296
54 53 32 40 28 31 8 30 33 27 45 29 20 20 357 334 347 42 51 9 0 360 359 358 355 350 345 340 336 325 318 316 315 314 311 312 311 309 307 306 302 302 300 302 301 298 298 296 294 293 292 292 292 292
64 15 26 9 14 25 27 9 357 25 47 347 18 11 354 344 23 43 271 293 339 347 352 354 349 344 336 326 318 317 312 311 313 311 298 300 306 304 300 297 296 295 293 294 294 291 292 290 289 291 295 296 296 296
66 18 36 1 359 41 345 32 19 345 351 354 337 315 335 347 46 285 247 307 326 339 349 349 344 340 332 331 329 323 319 317 314 315 311 305 305 305 306 303 301 296 286 289 290 289 289 290 291 292 292 293 293 295
54 344 16 24 14 9 45 52 31 68 34 3 308 347 25 55 268 258 278 310 332 338 340 336 328 326 329 325 316 313 312 312 312 311 310 308 305 301 300 306 311 310 304 303 301 301 301 299 298 298 298 297 298 297
82 26 61 342 9 29 132 74 46 14 256 281 315 333 175 195 239 297 302 322 322 324 335 335 329 325 324 322 319 313 310 311 312 312 313 314 307 306 303 304 305 304 303 301 299 298 299 300 300 299 298 298 298 297
30 357 0 5 351 312 40 169 242 281 314 254 177 265 260 252 263 284 299 328 335 327 321 321 317 317 320 320 322 321 320 319 319 318 318 318 319 315 312 310 308 306 303 300 299 299 299 297 296 296 296 296 298 297
350 351 347 337 39 276 281 326 312 297 289 268 269 279 280 284 291 264 266 285 302 310 310 314 314 308 316 316 316 313 310 311 309 307 311 314 314 311 308 306 303 302 299 297 297 297 295 294 294 292 292 294 295 296
336 340 316 280 264 269 286 309 305 292 275 270 256 253 270 299 310 275 264 305 308 308 310 315 310 298 314 319 319 320 323 322 316 314 310 309 309 308 306 303 300 297 296 294 294 294 294 293 292 292 291 291 291 291
320 327 324 307 293 304 317 323 305 289 278 268 261 255 285 283 277 243 307 346 346 333 323 313 314 313 314 321 320 318 317 316 315 312 310 309 309 309 307 305 302 300 298 297 295 294 293 292 292 292 293 293 293 293
297 309 304 296 297 316 330 335 300 308 260 264 265 272 258 260 260 241 254 348 5 1 349 331 320 318 319 321 322 321 317 314 313 311 310 308 307 306 304 304 303 301 299 298 297 297 297 297 296 297 297 296 297 297
Wind_Speed_850mb
33 35 34 11 12 16 20 28 28 23 17 11 5 2 4 6 5 13 20 15 7 12 31 25 10 10 10 23 14 19 15 3 5 8 7 6 6 12 8 7 17 13 15 8 5 2 28 18 10 31 11 4 1 2
22 22 23 34 29 24 22 28 27 23 19 12 8 4 5 4 5 8 13 17 13 12 15 35 41 31 21 29 29 22 5 14 15 9 3 8 5 5 11 6 4 5 13 12 21 12 3 29 6 11 3 2 2 2
20 16 14 20 19 25 25 27 28 28 26 20 13 10 11 11 9 12 13 28 37 19 29 24 23 33 22 25 46 16 10 22 12 18 9 5 8 6 8 7 8 6 9 8 8 5 5 18 11 13 10 10 9 8
26 17 11 13 14 15 19 17 27 31 26 19 13 12 12 11 11 12 15 9 10 9 7 13 35 38 42 17 28 30 47 34 42 25 8 6 7 6 5 6 7 7 13 12 1 4 6 6 16 18 19 16 14 14
25 21 11 8 10 11 13 16 15 19 17 19 18 18 16 13 7 9 15 22 11 3 7 4 25 31 40 35 29 35 46 48 20 9 3 4 8 8 2 5 2 11 12 10 8 18 11 8 22 23 21 19 20 17
25 25 22 11 4 8 10 12 14 13 14 12 12 15 17 16 14 11 7 13 19 16 8 5 9 30 30 42 49 46 36 32 15 12 6 10 7 5 6 5 6 11 14 19 15 28 26 32 25 24 25 20 16 12
27 25 26 21 13 9 8 9 15 18 13 15 14 14 12 10 10 7 11 6 11 8 8 4 4 10 19 27 35 40 40 25 16 9 7 7 7 9 5 5 5 20 20 30 39 48 28 23 23 24 22 25 24 24
27 22 25 27 18 11 10 9 11 20 21 22 19 19 15 14 21 21 18 11 6 9 9 6 3 4 12 9 9 12 11 13 21 7 6 4 7 7 3 2 21 22 23 31 26 15 30 28 27 30 30 28 27 23
24 24 22 25 23 19 12 7 8 19 24 25 29 25 19 12 7 11 14 19 23 14 9 6 6 3 8 9 8 8 9 7 8 5 4 5 2 5 5 6 17 11 7 24 27 22 28 28 31 33 28 24 18 17
20 33 33 33 30 24 35 21 26 16 22 28 30 9 7 11 25 13 6 4 10 16 11 5 2 4 8 10 11 5 11 4 5 3 4 5 4 18 19 17 17 11 11 24 33 32 37 37 33 28 21 18 14 9
20 30 34 36 35 34 32 25 19 28 32 20 7 8 29 23 7 9 9 11 12 7 13 8 9 5 7 5 4 9 3 3 5 4 3 2 2 7 11 14 16 19 19 21 25 31 29 28 24 17 12 7 4 4
18 24 27 29 30 31 32 27 20 20 14 18 30 25 11 7 9 12 3 7 8 2 7 4 6 7 7 8 6 7 5 5 3 5 4 1 3 8 9 15 16 20 22 27 27 25 24 19 15 11 7 5 6 6
20 20 21 27 30 28 30 19 28 36 33 26 12 8 10 11 14 9 1 7 4 6 6 5 4 6 7 9 10 5 10 1 4 6 5 3 9 12 10 11 15 17 19 19 20 18 16 14 14 14 14 12 9 9
24 25 25 25 25 25 19 22 15 17 11 11 9 10 6 8 3 6 6 5 3 6 9 10 7 5 9 8 1 9 2 5 6 4 7 2 6 9 12 14 13 18 20 21 21 21 19 20 18 17 17 15 11 6
13 12 11 22 19 17 19 17 11 21 14 12 10 6 7 1 7 7 11 7 8 6 9 5 8 8 6 8 5 7 7 1 7 7 1 5 4 6 10 13 15 17 18 18 19 17 16 15 14 14 11 7 3 1
14 14 23 28 18 9 5 13 11 16 10 11 17 9 6 5 7 11 15 8 13 8 7 6 5 7 7 6 7 5 10 9 5 1 2 4 6 9 11 12 12 14 15 15 15 13 12 8 6 3 3 6 10 13
18 19 29 22 20 13 35 33 15 13 12 10 9 19 10 13 10 10 14 16 14 10 4 4 8 1 2 6 4 4 7 3 3 4 9 10 9 10 11 10 9 8 8 7 7 4 3 3 5 7 10 14 15 17
38 36 37 47 47 49 34 15 11 13 16 18 8 10 22 21 10 15 14 19 12 8 7 3 5 6 6 7 5 3 0 1 3 4 5 7 9 8 7 7 7 8 9 9 8 7 8 10 11 12 14 18 21 23
31 24 18 15 13 12 9 13 14 11 13 8 9 12 14 14 27 25 19 14 15 13 7 4 7 3 3 1 3 3 2 2 2 4 8 9 7 5 6 8 11 12 13 13 14 17 20 21 24 26 28 27 26 27
21 15 11 14 9 9 11 14 13 13 7 7 9 10 10 10 13 18 24 16 12 7 16 8 2 1 3 2 1 1 1 1 3 1 1 0 4 8 12 13 15 16 18 21 24 23 24 28 32 32 35 36 35 34
17 18 15 6 17 23 15 11 14 11 8 9 11 12 9 12 13 18 21 23 11 12 5 6 5 6 5 4 3 2 3 4 5 4 6 5 10 16 16 20 20 22 23 25 25 29 34 35 35 37 38 39 41 41
16 14 14 21 15 13 17 22 10 7 6 7 9 12 13 9 16 20 21 20 10 9 6 7 9 9 7 5 5 7 7 8 8 10 13 16 14 15 16 23 22 21 25 28 29 29 30 35 36 37 38 38 39 39
11 13 17 21 12 16 9 15 8 15 8 13 7 8 8 10 18 17 10 8 6 11 10 11 10 11 9 7 6 6 6 7 9 11 12 13 14 17 18 20 23 23 20 21 27 26 27 30 32 33 36 36 37 36
17 14 17 16 24 7 10 14 11 11 9 9 7 6 8 13 22 9 3 4 7 10 11 11 12 11 10 9 8 9 10 10 12 14 20 19 18 18 25 23 26 27 29 27 29 31 32 33 34 34 34 35 36 37
11 27 17 16 18 14 14 11 13 10 6 6 6 6 7 14 5 5 2 4 10 10 11 11 12 12 12 10 12 13 14 17 19 18 16 27 27 26 25 29 30 31 36 37 35 37 35 37 38 39 40 41 42 42
16 26 15 12 13 9 3 6 6 4 4 7 3 10 8 3 5 4 5 7 10 10 10 11 11 11 12 15 15 16 19 21 23 23 19 24 26 30 31 32 29 22 32 35 35 34 34 35 38 41 42 40 41 44
11 8 13 17 8 6 6 3 3 3 5 3 5 9 5 5 5 7 7 7 10 11 12 14 15 16 16 14 17 20 23 24 26 26 26 27 30 32 33 36 34 28 29 30 32 34 36 35 37 38 40 40 39 41
9 14 2 14 6 7 6 2 3 1 4 2 4 3 5 10 7 4 5 12 13 13 17 20 18 19 20 20 20 21 22 27 29 32 33 30 24 28 29 29 30 31 33 33 35 38 40 43 46 47 49 51 49 45
8 19 11 6 2 1 1 4 3 2 5 3 5 6 8 9 8 9 10 14 18 18 18 19 22 23 23 24 25 26 28 30 33 36 35 34 28 28 30 33 35 37 40 44 45 47 48 51 53 56 58 60 58 58
10 20 6 5 1 4 1 4 9 17 21 15 13 13 16 19 16 19 21 20 21 22 22 23 23 21 22 26 25 23 26 31 32 33 39 42 41 39 39 41 44 45 48 52 55 55 54 56 59 61 64 67 68 69
14 13 8 5 7 5 10 26 27 23 18 14 20 25 22 19 16 8 9 13 18 23 26 27 24 21 27 28 33 38 38 31 35 39 44 47 47 47 47 49 51 53 56 60 63 65 66 68 69 70 72 73 72 72
10 6 9 6 5 11 19 10 13 7 7 7 9 10 11 11 11 7 4 14 22 26 25 26 26 21 27 33 36 41 43 46 47 48 50 54 58 58 59 60 61 62 64 65 66 67 67 69 71 73 75 75 75 74
10 8 7 9 8 6 10 20 5 8 10 8 7 7 8 9 13 9 7 11 31 42 33 28 24 27 32 39 42 45 45 45 48 52 54 58 61 63 65 65 63 61 61 63 64 66 68 69 71 72 74 75 76 75
Wind_Direction_850mb
21 25 28 126 147 145 147 163 167 165 157 159 179 189 104 110 83 41 41 33 57 87 39 48 54 96 139 167 147 158 107 355 32 86 129 171 127 206 105 181 161 145 155 191 70 152 255 164 115 184 195 152 102 259
2 24 34 46 79 110 136 157 165 161 152 146 147 132 132 116 84 84 52 75 86 89 96 65 64 76 114 153 141 152 118 152 163 106 118 118 118 141 147 204 323 158 179 175 185 204 210 183 117 169 137 114 96 130
17 17 48 44 67 96 104 133 147 138 133 136 119 116 143 99 91 119 91 110 109 88 60 51 34 70 99 139 169 137 161 155 124 126 138 148 140 144 148 237 99 288 184 156 97 255 116 176 177 182 167 145 117 103
27 28 42 61 87 102 110 107 126 129 133 134 129 108 105 97 69 143 105 84 78 84 87 33 65 66 56 94 167 179 176 147 135 125 98 124 125 206 192 144 146 203 131 147 23 301 112 194 189 171 147 143 133 123
38 42 55 63 73 101 127 126 127 128 129 125 117 113 110 102 102 122 122 66 56 95 138 100 56 70 66 79 121 136 151 143 105 78 85 112 125 122 1 63 205 199 167 165 199 167 137 145 180 171 161 152 148 141
41 46 54 63 105 105 110 143 139 151 162 136 124 114 127 130 128 84 80 70 74 85 110 58 45 55 95 77 76 86 112 112 98 109 107 98 106 105 109 173 278 185 159 138 155 149 129 130 133 146 151 139 134 134
33 49 47 56 74 111 96 141 151 146 158 162 163 135 122 112 134 79 86 31 33 55 94 69 28 32 66 83 72 69 68 66 77 78 53 102 100 84 91 153 192 164 135 127 131 129 117 140 122 126 135 131 127 114
33 50 50 38 60 103 93 102 158 157 146 146 153 152 138 110 93 89 88 72 32 60 72 93 320 48 30 41 70 44 58 52 42 76 56 63 81 68 50 237 145 145 138 135 129 112 135 126 126 129 133 131 124 110
46 55 65 56 48 61 91 93 132 157 154 147 149 136 130 118 80 87 108 64 56 51 105 75 114 198 28 54 73 67 61 59 41 55 47 36 31 83 344 46 111 129 115 156 151 148 152 153 144 142 149 142 141 127
60 60 59 60 52 32 54 74 111 152 156 141 145 92 74 112 118 94 77 62 36 28 44 94 115 58 45 23 34 52 42 68 75 348 17 53 85 92 52 78 106 126 158 160 151 139 148 143 145 140 134 123 113 107
70 63 59 52 49 43 32 34 92 151 148 142 88 68 126 124 64 52 57 51 343 35 19 29 43 80 56 81 128 21 165 37 88 257 134 17 78 85 42 74 98 105 119 153 160 150 151 149 139 129 120 103 67 53
81 66 59 55 53 52 41 38 70 105 99 107 112 98 70 72 65 76 335 334 47 169 2 66 28 54 76 72 95 14 108 47 114 297 78 14 92 44 74 70 93 104 111 121 127 131 129 134 137 139 137 130 127 101
91 71 49 40 35 38 46 29 107 104 94 73 63 68 15 352 48 87 72 319 6 336 28 48 50 47 73 66 69 62 61 107 295 43 219 200 95 54 80 111 100 111 117 119 125 127 126 130 136 139 138 132 123 103
98 77 49 28 20 41 62 37 114 91 67 59 51 43 69 350 18 173 166 183 7 340 67 55 49 64 38 52 92 79 284 45 49 26 249 64 67 61 74 97 124 113 117 122 124 123 128 133 136 131 130 126 120 107
67 51 24 5 354 18 61 75 51 45 48 55 29 52 43 291 25 43 44 44 17 58 48 75 59 65 15 79 47 101 48 282 198 218 109 101 50 86 90 96 99 103 111 119 125 127 128 136 144 141 137 130 120 313
17 353 354 348 307 292 96 83 67 45 58 53 49 71 25 40 2 36 38 28 22 27 57 59 73 57 40 106 63 196 120 209 243 120 37 124 115 91 84 86 88 97 104 112 121 124 125 139 157 179 255 288 293 294
20 40 33 356 340 166 143 125 83 52 56 55 52 41 69 69 58 29 16 8 14 11 74 64 63 80 95 54 14 194 188 230 150 104 98 103 110 92 80 70 61 59 75 91 95 102 145 211 258 279 289 297 300 301
69 80 70 81 92 110 101 71 78 60 64 48 71 28 55 59 60 41 20 16 20 37 18 70 111 72 139 140 269 250 229 32 151 111 115 97 86 76 58 32 13 360 353 350 350 338 319 311 299 290 283 282 285 289
100 80 77 76 54 57 60 49 49 84 62 63 53 41 63 68 49 40 30 42 57 68 85 55 75 101 155 150 162 159 159 106 153 239 258 271 253 273 308 335 332 331 322 322 322 313 310 308 306 305 305 305 303 301
61 61 47 12 347 51 69 44 49 75 75 45 36 30 63 56 48 32 29 45 57 49 43 41 136 93 121 122 170 217 187 15 6 29 229 212 245 287 305 312 310 312 315 316 312 306 305 307 308 308 305 304 305 303
35 31 24 20 48 59 69 46 55 57 50 57 17 34 38 34 34 29 22 13 50 44 63 62 38 11 15 344 331 335 332 326 330 329 306 311 308 306 306 306 311 311 310 308 307 308 310 309 306 303 303 303 303 302
35 28 37 45 58 64 61 37 56 45 41 49 31 24 33 25 11 6 1 34 54 32 37 22 15 11 354 327 304 292 289 294 303 307 309 311 315 300 295 299 302 301 302 302 301 300 298 299 300 301 301 300 301 301
47 47 48 33 64 46 34 24 48 24 56 357 11 38 20 14 2 358 63 48 55 14 10 9 4 0 359 6 1 341 316 312 312 306 305 308 311 313 312 309 307 308 306 302 304 302 297 293 292 293 294 295 296 296
54 53 32 40 28 31 8 30 33 27 45 29 20 20 357 334 347 42 51 9 0 360 359 358 355 350 345 340 336 325 318 316 315 314 311 312 311 309 307 306 302 302 300 302 301 298 298 296 294 293 292 292 292 292
64 15 26 9 14 25 27 9 357 25 47 347 18 11 354 344 23 43 271 293 339 347 352 354 349 344 336 326 318 317 312 311 313 311 298 300 306 304 300 297 296 295 293 294 294 291 292 290 289 291 295 296 296 296
66 18 36 1 359 41 345 32 19 345 351 354 337 315 335 347 46 285 247 307 326 339 349 349 344 340 332 331 329 323 319 317 314 315 311 305 305 305 306 303 301 296 286 289 290 289 289 290 291 292 292 293 293 295
54 344 16 24 14 9 45 52 31 68 34 3 308 347 25 55 268 258 278 310 332 338 340 336 328 326 329 325 316 313 312 312 312 311 310 308 305 301 300 306 311 310 304 303 301 301 301 299 298 298 298 297 298 297
82 26 61 342 9 29 132 74 46 14 256 281 315 333 175 195 239 297 302 322 322 324 335 335 329 325 324 322 319 313 310 311 312 312 313 314 307 306 303 304 305 304 303 301 299 298 299 300 300 299 298 298 298 297
30 357 0 5 351 312 40 169 242 281 314 254 177 265 260 252 263 284 299 328 335 327 321 321 317 317 320 320 322 321 320 319 319 318 318 318 319 315 312 310 308 306 303 300 299 299 299 297 296 296 296 296 298 297
350 351 347 337 39 276 281 326 312 297 289 268 269 279 280 284 291 264 266 285 302 310 310 314 314 308 316 316 316 313 310 311 309 307 311 314 314 311 308 306 303 302 299 297 297 297 295 294 294 292 292 294 295 296
336 340 316 280 264 269 286 309 305 292 275 270 256 253 270 299 310 275 264 305 308 308 310 315 310 298 314 319 319 320 323 322 316 314 310 309 309 308 306 303 300 297 296 294 294 294 294 293 292 292 291 291 291 291
320 327 324 307 293 304 317 323 305 289 278 268 261 255 285 283 277 243 307 346 346 333 323 313 314 313 314 321 320 318 317 316 315 312 310 309 309 309 307 305 302 300 298 297 295 294 293 292 292 292 293 293 293 293
297 309 304 296 297 316 330 335 300 308 260 264 265 272 258 260 260 241 254 348 5 1 349 331 320 318 319 321 322 321 317 314 313 311 310 308 307 306 304 304 303 301 299 298 297 297 297 297 296 297 297 296 297 297